Location: Unspecified
(47.1121°N, 116.3927°W)
Time: 15:44:08
(UTC-07:00)

ISS - Pass Details

Date: 24 May 2019
Orbit: 408 x 418 km, 51.6° (Epoch: 16 June)

Event Time Altitude Azimuth Distance (km) Brightness Sun altitude
Rises 21:17:12 0° 268° (W) 2,348 0.8 -7.8°
Reaches altitude 10° 21:19:21 10° 276° (W) 1,489 -0.1 -8.1°
Maximum altitude 21:22:34 42° 349° (N) 607 -2.4 -8.5°
Drops below altitude 10° 21:25:47 10° 62° (ENE) 1,499 -1.1 -8.9°
Sets 21:27:58 0° 69° (ENE) 2,365 -0.2 -9.1°
